Station MCGM4 - 9099018 - Marquette C.G., MI Image indicating link to RSS feed of recent meteorological observations for station MCGM4


Conditions at MCGM4 as of
(2:30 am EDT)
0630 GMT on 04/23/2024:
     

Click on the graph icon in the table below to see a time series plot of the last five days of that observation.

5-day plot - Wind Direction Wind Direction (WDIR):SSW ( 200 deg true )
5-day plot - Wind Speed Wind Speed (WSPD): 6.0 kts
5-day plot - Wind Gust Wind Gust (GST): 9.9 kts
5-day plot - Atmospheric Pressure Atmospheric Pressure (PRES):29.51 in
5-day plot - Air Temperature Air Temperature (ATMP): 49.8 °F
5-day plot - Dew Point Dew Point (DEWP): 37.9 °F
5-day plot - Wind Chill Wind Chill (CHILL): 46.9 °F
5-day plot - Wind Speed at 10 Meters Wind Speed at 10 meters (WSPD10M): 5.8 kts
5-day plot - Wind Speed at 20 Meters Wind Speed at 20 meters (WSPD20M): 5.8 kts
5-day plot -  Wind Speed, Wind Gust and Atmospheric Pressure Combined plot of Wind Speed, Gust, and Air Pressure
NOS Water Level Observation Network Water Level
Previous observations
TIME
(EDT)
5-day plot - Wind Direction
WDIR
 
5-day plot - Wind Speed
WSPD
kts
5-day plot - Wind Gust
GST
kts
5-day plot - Wave Height
WVHT
ft
5-day plot - Dominant Wave Period
DPD
sec
5-day plot - Average Wave Period
APD
sec
5-day plot - Mean Wave Direction
MWD
 
5-day plot - Atmospheric Pressure
PRES
in
5-day plot - Pressure Tendency
PTDY
in
5-day plot - Air Temperature
ATMP
°F
5-day plot - Water Temperature
WTMP
°F
5-day plot - Dew Point
DEWP
°F
5-day plot - Salinity
SAL
psu
5-day plot - Visibility
VIS
nmi
5-day plot - Tide (above MLLW)
TIDE
ft
2024-04-23 02:24 amSSW 6.0 13.0----29.51- 50.2- 38.1---
2024-04-23 02:18 am S 4.1 14.0----29.51- 50.0- 38.1---
2024-04-23 02:12 amSSW 8.0 14.0----29.51- 50.4- 37.9---
2024-04-23 02:06 amSSW 5.1 12.0----29.52- 50.0- 38.1---
2024-04-23 02:00 am S 6.0 14.0----29.52-0.06 50.2- 38.3---
2024-04-23 01:54 amSSW 6.0 15.9----29.52- 50.2- 38.1---
2024-04-23 01:48 amSSW 7.0 15.9----29.52- 50.7- 38.1---
2024-04-23 01:42 amSSW 6.0 19.0----29.52- 50.5- 38.3---
2024-04-23 01:36 amSSW 8.0 17.1----29.52- 50.7- 38.7---
2024-04-23 01:30 am S 5.1 15.9----29.52- 49.8- 38.7---
2024-04-23 01:24 amSSW 5.1 18.1----29.52- 50.2- 38.7---
2024-04-23 01:18 am S 7.0 19.0----29.52- 49.8- 38.8---
2024-04-23 01:12 am S 7.0 13.0----29.52- 50.0- 39.0---
2024-04-23 01:06 am S 8.0 14.0----29.52- 50.2- 39.2---
2024-04-23 01:00 am S 6.0 15.0----29.52-0.04 49.8- 39.4---
2024-04-23 12:54 am S 6.0 12.0----29.53- 49.3- 39.7---
2024-04-23 12:48 am S 7.0 13.0----29.53- 49.3- 39.7---
2024-04-23 12:42 am S 7.0 12.0----29.54- 49.1- 39.6---
2024-04-23 12:36 am S 6.0 12.0----29.54- 48.9- 39.6---
2024-04-23 12:30 am S 7.0 13.0----29.54- 49.6- 39.2---
2024-04-23 12:24 am S 9.9 13.0----29.54- 50.2- 38.8---
2024-04-23 12:18 am S 12.0 17.1----29.55- 51.1- 38.5---
2024-04-23 12:12 am S 9.9 13.0----29.56- 51.3- 38.5---
2024-04-23 12:06 amSSW 4.1 11.1----29.56- 51.1- 38.5---
2024-04-23 12:00 amSSW 6.0 12.0----29.57+0.00 51.8- 38.7---
2024-04-22 11:54 pmSSW 2.9 12.0----29.58- 51.4- 38.5---
2024-04-22 11:48 pm SW 11.1 18.1----29.58- 53.1- 37.9---
2024-04-22 11:42 pm SW 12.0 19.0----29.59- 53.8- 37.2---
2024-04-22 11:36 pm SW 14.0 22.0----29.59- 54.7- 36.0---
2024-04-22 11:30 pm SW 14.0 24.1----29.59- 55.8- 35.1---
2024-04-22 11:24 pm SW 14.0 25.1----29.59- 56.7- 33.8---
2024-04-22 11:18 pm SW 19.0 24.1----29.59- 57.9- 32.2---
2024-04-22 11:12 pm SW 17.1 22.9----29.58- 58.3- 31.5---
2024-04-22 11:06 pm SW 15.0 22.9----29.58- 58.8- 30.4---
2024-04-22 11:00 pm SW 15.9 22.9----29.58+0.00 59.4- 29.8---
2024-04-22 10:54 pmWSW 12.0 17.1----29.58- 59.4- 29.3---
2024-04-22 10:48 pm SW 12.0 22.0----29.57- 59.4- 29.1---
2024-04-22 10:42 pm SW 14.0 19.0----29.57- 59.5- 28.4---
2024-04-22 10:36 pm SW 8.0 13.0----29.57- 59.2- 25.0---
2024-04-22 10:30 pm SW 11.1 17.1----29.58- 59.5- 23.7---
2024-04-22 10:24 pm SW 14.0 18.1----29.58- 59.7- 22.1---
2024-04-22 10:18 pm SW 8.0 11.1----29.57- 58.3- 23.9---
2024-04-22 10:12 pmSSW 8.0 12.0----29.57- 57.9- 24.4---
2024-04-22 10:06 pmSSW 5.1 9.9----29.57- 56.8- 25.5---
2024-04-22 10:00 pmSSW 4.1 9.9----29.57-0.01 56.1- 26.4---
2024-04-22 09:54 pmSSW 4.1 9.9----29.57- 56.1- 26.6---
2024-04-22 09:48 pmSSW 4.1 8.9----29.57- 56.5- 25.3---
2024-04-22 09:42 pmSSW 4.1 8.0----29.57- 56.3- 26.1---
2024-04-22 09:36 pmSSW 4.1 8.0----29.57- 55.8- 26.4---
2024-04-22 09:30 pm S 4.1 12.0----29.57- 56.8- 25.5---
2024-04-22 09:24 pmSSW 6.0 9.9----29.57- 57.4- 25.3---
2024-04-22 09:18 pmSSW 6.0 11.1----29.57-------
2024-04-22 09:12 pmSSW 7.0 11.1----29.57-------
2024-04-22 09:06 pmSSW 5.1 8.9----29.57-------
2024-04-22 09:00 pmSSW 8.0 14.0----29.57-0.04 59.2- 23.7---
2024-04-22 08:54 pmSSW 7.0 11.1----29.58- 58.8- 24.1---
2024-04-22 08:48 pmSSW 7.0 12.0----29.58-------
2024-04-22 08:42 pmSSW 6.0 12.0----29.58-------
2024-04-22 08:36 pm SW 9.9 12.0----29.58-------
2024-04-22 08:30 pm SW 7.0 15.9----29.58- 61.0- 22.5---
2024-04-22 08:24 pm SW 8.9 13.0----29.58- 61.0- 22.3---
2024-04-22 08:18 pm--------- 61.9- 21.2---
2024-04-22 08:12 pm--------- 62.2- 20.1---
2024-04-22 08:06 pm--------- 60.6- 22.1---
2024-04-22 08:00 pmSSW 8.0 17.1----29.58-0.04 61.0- 21.6---
2024-04-22 07:54 pm SW 12.0 18.1----29.58- 62.4- 20.1---
2024-04-22 07:48 pm SW 7.0 15.9----29.58- 61.0- 21.9---
2024-04-22 07:42 pm SW 9.9 19.0----29.58- 62.1- 20.8---
2024-04-22 07:36 pmSSW 6.0 14.0----29.58- 61.3- 21.6---
2024-04-22 07:30 pmSSW 8.0 19.0----29.58- 60.8- 22.3---
2024-04-22 07:24 pm SW 11.1 19.0----29.58- 62.2- 20.8---
2024-04-22 07:18 pm SW 11.1 17.1----29.58- 62.6- 20.1---
2024-04-22 07:12 pm SW 11.1 14.0----29.59- 62.6- 20.3---
2024-04-22 07:06 pm SW 9.9 15.9----29.59- 62.2- 21.0---
2024-04-22 07:00 pm SW 9.9 18.1----29.58-0.08 63.5- 18.9---
2024-04-22 06:54 pm SW 12.0 19.0----29.59- 63.5- 19.2---
2024-04-22 06:48 pm SW 12.0 20.0----29.60- 64.0- 19.0---
2024-04-22 06:42 pm SW 15.9 22.9----29.60- 63.7- 18.9---
2024-04-22 06:36 pm SW 11.1 18.1----29.60- 64.2- 19.0---
2024-04-22 06:30 pm SW 12.0 19.0----29.60- 64.6- 18.1---
2024-04-22 06:24 pm SW 7.0 17.1----29.61- 64.8- 19.2---
2024-04-22 06:18 pm SW 12.0 15.9----29.61- 64.8- 18.9---
2024-04-22 06:12 pm SW 12.0 21.0----29.61- 64.6- 19.2---
2024-04-22 06:06 pm SW 8.0 14.0----29.61- 63.1- 21.2---
2024-04-22 06:00 pm SW 9.9 15.0----29.61-0.09 64.0- 18.9---
2024-04-22 05:54 pm SW 7.0 14.0----29.61- 63.7- 19.8---
2024-04-22 05:48 pm SW 9.9 17.1----29.62- 62.6- 20.1---
2024-04-22 05:42 pmSSW 7.0 12.0----29.62- 64.0- 18.7---
2024-04-22 05:36 pm SW 9.9 15.0----29.62- 64.0- 17.1---
2024-04-22 05:30 pm SW 8.0 15.0----29.62- 64.9- 16.9---
2024-04-22 05:24 pmWSW 9.9 19.0----29.62- 65.1- 16.0---
2024-04-22 05:18 pm SW 9.9 17.1----29.63- 64.4- 16.7---
2024-04-22 05:12 pm SW 11.1 18.1----29.63- 64.4- 15.4---
2024-04-22 05:06 pm SW 12.0 17.1----29.63- 64.8- 15.6---
2024-04-22 05:00 pmSSW 8.0 15.9----29.63-0.11 64.4- 15.1---
2024-04-22 04:54 pm SW 9.9 15.9----29.63- 63.5- 15.4---
2024-04-22 04:48 pmSSW 8.9 14.0----29.64- 61.7- 19.4---
2024-04-22 04:42 pmSSW 9.9 18.1----29.64- 63.1- 16.9---
2024-04-22 04:36 pmSSW 8.9 22.0----29.64- 63.0- 17.2---
2024-04-22 04:30 pm SW 12.0 22.0----29.65- 64.0- 14.4---
2024-04-22 04:24 pmSSW 7.0 17.1----29.65- 63.3- 15.1---
2024-04-22 04:18 pm SW 9.9 19.0----29.65- 64.0- 13.8---
2024-04-22 04:12 pmSSW 5.1 15.9----29.65- 62.2- 18.0---
2024-04-22 04:06 pm SW 8.9 15.0----29.66- 63.7- 15.3---
2024-04-22 04:00 pmSSW 7.0 15.9----29.66-0.10 63.3- 14.9---
2024-04-22 03:54 pm SW 6.0 17.1----29.67- 63.5- 15.6---
2024-04-22 03:48 pm SW 8.0 17.1----29.67- 63.0- 16.3---
2024-04-22 03:42 pmSSW 7.0 13.0----29.67- 61.9- 18.7---
2024-04-22 03:36 pmSSW 12.0 21.0----29.68- 63.3- 15.6---
2024-04-22 03:30 pmSSW 6.0 13.0----29.68- 62.2- 17.8---
2024-04-22 03:24 pm S 7.0 15.0----29.69- 61.2- 18.5---
2024-04-22 03:18 pm SW 8.0 14.0----29.69- 63.5- 14.0---
2024-04-22 03:12 pm SW 13.0 17.1----29.70- 62.8- 14.4---
2024-04-22 03:06 pm SW 14.0 18.1----29.70- 62.4- 14.5---
2024-04-22 03:00 pmSSW 8.9 19.0----29.70-0.09 62.1- 14.5---
2024-04-22 02:54 pmSSW 8.0 15.0----29.70- 61.3- 17.1---
2024-04-22 02:48 pm SW 8.0 15.9----29.71- 61.9- 14.5---
2024-04-22 02:42 pmSSW 6.0 18.1----29.71- 61.5- 18.0---
2024-04-22 02:36 pm SW 11.1 18.1----29.72- 60.6- 16.2---
2024-04-22 02:30 pm SW 12.0 20.0----29.72- 61.5- 15.1---
2024-04-22 02:24 pm SW 8.9 15.0----29.72- 61.7- 15.4---
2024-04-22 02:18 pm SW 9.9 15.9----29.72- 61.3- 15.3---
2024-04-22 02:12 pm SW 8.0 15.9----29.73- 60.6- 16.7---
2024-04-22 02:06 pm SW 7.0 14.0----29.73- 61.0- 15.4---
2024-04-22 02:00 pmSSW 9.9 18.1----29.73-0.09 59.9- 17.2---
2024-04-22 01:54 pmWSW 8.9 18.1----29.74- 61.2- 14.0---
2024-04-22 01:48 pmSSW 6.0 18.1----29.74- 59.9- 14.5---
2024-04-22 01:42 pmWSW 8.9 15.0----29.75- 61.5- 12.7---
2024-04-22 01:36 pmSSW 8.0 19.0----29.75- 59.9- 16.0---
2024-04-22 01:30 pm SW 8.9 18.1----29.75- 59.7- 15.4---
2024-04-22 01:24 pm SW 14.0 19.0----29.76- 60.3- 13.3---
2024-04-22 01:18 pmWSW 12.0 18.1----29.76- 60.3- 13.6---
2024-04-22 01:12 pm SW 11.1 19.0----29.76- 59.4- 14.5---
2024-04-22 01:06 pm SW 12.0 17.1----29.77- 59.2- 15.4---
2024-04-22 01:00 pm SW 5.1 17.1----29.77-0.07 59.2- 17.1---
2024-04-22 12:54 pm SW 8.9 13.0----29.77- 59.4- 15.8---
2024-04-22 12:48 pm SW 8.9 15.9----29.78- 59.5- 15.8---
2024-04-22 12:42 pm SW 12.0 18.1----29.78- 58.8- 15.4---
2024-04-22 12:36 pm SW 7.0 18.1----29.78- 58.6- 16.5---
2024-04-22 12:30 pmSSW 6.0 13.0----29.78- 57.7- 19.0---
2024-04-22 12:24 pm SW 8.0 14.0----29.78- 59.2- 16.5---
2024-04-22 12:18 pmWSW 8.0 13.0----29.79- 59.2- 15.6---
2024-04-22 12:12 pmWSW 8.0 17.1----29.79- 59.2- 16.2---
2024-04-22 12:06 pm SW 13.0 18.1----29.80- 57.6- 14.9---
2024-04-22 12:00 pm SW 13.0 19.0----29.80-0.06 58.3- 14.4---
2024-04-22 11:54 am SW 11.1 17.1----29.80- 58.1- 15.6---
2024-04-22 11:48 am SW 14.0 19.0----29.80- 57.4- 14.7---
2024-04-22 11:42 am SW 9.9 14.0----29.80- 57.0- 16.9---
2024-04-22 11:36 amWSW 8.9 15.9----29.80- 57.9- 16.9---
2024-04-22 11:30 am SW 11.1 17.1----29.81- 56.7- 17.6---
2024-04-22 11:24 am SW 11.1 15.9----29.81- 57.2- 17.6---
2024-04-22 11:18 am SW 12.0 18.1----29.81- 56.5- 17.6---
2024-04-22 11:12 am SW 15.0 20.0----29.81- 56.1- 17.1---
2024-04-22 11:06 am SW 11.1 19.0----29.82- 56.1- 18.0---
2024-04-22 11:00 am SW 9.9 15.9----29.82-0.04 55.9- 18.5---
2024-04-22 10:54 am SW 6.0 14.0----29.82- 56.7- 19.0---
2024-04-22 10:48 amWSW 8.9 15.0----29.83- 56.1- 18.9---
2024-04-22 10:42 amWSW 9.9 19.0----29.83- 55.4- 18.7---
2024-04-22 10:36 amWSW 8.9 15.0----29.83- 55.0- 19.0---
2024-04-22 10:30 amWSW 8.9 18.1----29.83- 54.5- 19.2---
2024-04-22 10:24 am SW 11.1 15.0----29.83- 53.8- 19.0---
2024-04-22 10:18 am SW 11.1 13.0----29.83- 53.6- 19.2---
2024-04-22 10:12 am SW 7.0 13.0----29.83- 54.1- 19.4---
2024-04-22 10:06 am SW 5.1 8.0----29.83- 54.1- 20.1---
2024-04-22 10:00 amWSW 6.0 8.9----29.84-0.03 54.5- 19.6---
2024-04-22 09:54 amWSW 6.0 11.1----29.84- 54.1- 19.0---
2024-04-22 09:48 amWSW 7.0 13.0----29.84- 54.0- 19.0---
2024-04-22 09:42 amWSW 6.0 11.1----29.84- 53.8- 19.4---
2024-04-22 09:36 amWSW 8.0 11.1----29.85- 53.1- 19.2---
2024-04-22 09:30 amWSW 7.0 12.0----29.85- 52.9- 19.8---
2024-04-22 09:24 amWSW 6.0 9.9----29.85- 52.5- 20.1---
2024-04-22 09:18 am SW 5.1 9.9----29.85- 51.3- 21.0---
2024-04-22 09:12 am SW 6.0 9.9----29.85- 50.5- 21.6---
2024-04-22 09:06 am SW 5.1 11.1----29.85- 49.8- 21.7---
2024-04-22 09:00 am SW 7.0 9.9----29.85-0.02 49.3- 21.7---
2024-04-22 08:54 am SW 6.0 9.9----29.85- 48.6- 22.1---
2024-04-22 08:48 am SW 6.0 9.9----29.85- 48.0- 21.7---
2024-04-22 08:42 amWSW 5.1 12.0----29.86- 47.7- 22.1---
2024-04-22 08:36 amWSW 6.0 11.1----29.86- 47.1- 21.7---
2024-04-22 08:30 amWSW 6.0 11.1----29.86- 46.6- 21.9---
2024-04-22 08:24 amWSW 8.0 13.0----29.86- 46.0- 21.7---
2024-04-22 08:18 amWSW 7.0 12.0----29.86- 45.7- 21.7---
2024-04-22 08:12 amWSW 7.0 12.0----29.86- 45.5- 21.7---
2024-04-22 08:06 amWSW 7.0 11.1----29.86- 45.1- 21.6---
2024-04-22 08:00 amWSW 6.0 13.0----29.86-0.03 44.6- 21.6---
2024-04-22 07:54 amWSW 8.0 11.1----29.86- 44.2- 21.7---
2024-04-22 07:48 am SW 7.0 12.0----29.86- 43.5- 22.1---
2024-04-22 07:42 amWSW 8.9 13.0----29.86- 43.2- 22.3---
2024-04-22 07:36 am SW 8.9 14.0----29.87- 42.8- 22.3---
2024-04-22 07:30 am SW 9.9 15.9----29.87- 42.8- 22.3---
2024-04-22 07:24 am SW 9.9 17.1----29.87- 42.3- 22.6---
2024-04-22 07:18 am SW 9.9 15.0----29.87- 41.9- 23.0---
2024-04-22 07:12 am SW 12.0 15.0----29.87- 41.5- 22.8---
2024-04-22 07:06 am SW 11.1 15.0----29.87- 41.2- 22.8---
2024-04-22 07:00 am SW 11.1 15.9----29.87-0.06 41.0- 23.0---
2024-04-22 06:54 am SW 9.9 14.0----29.87- 40.8- 23.2---
2024-04-22 06:48 am SW 9.9 15.9----29.87- 40.3- 23.0---
2024-04-22 06:42 am SW 9.9 15.0----29.87- 40.1- 23.4---
2024-04-22 06:36 am SW 9.9 15.0----29.88- 40.1- 23.2---
2024-04-22 06:30 am SW 12.0 18.1----29.87- 40.5- 23.2---
2024-04-22 06:24 am SW 12.0 19.0----29.88- 40.6- 23.2---
2024-04-22 06:18 am SW 11.1 15.9----29.87- 40.6- 23.0---
2024-04-22 06:12 am SW 12.0 19.0----29.88- 40.6- 23.0---
2024-04-22 06:06 am SW 12.0 17.1----29.88- 40.8- 23.2---
2024-04-22 06:00 am SW 13.0 19.0----29.88-0.06 40.8- 23.0---
2024-04-22 05:54 am SW 11.1 18.1----29.88- 40.8- 23.2---
2024-04-22 05:48 am SW 9.9 17.1----29.88- 40.6- 23.0---
2024-04-22 05:42 am SW 11.1 18.1----29.88- 40.5- 23.2---
2024-04-22 05:36 am SW 12.0 20.0----29.88- 40.3- 23.2---
2024-04-22 05:30 am SW 11.1 19.0----29.88- 40.3- 23.2---
2024-04-22 05:24 am SW 13.0 24.1----29.89- 40.1- 23.4---
2024-04-22 05:18 am SW 15.9 22.0----29.89- 39.9- 23.0---
2024-04-22 05:12 am SW 15.0 22.9----29.89- 39.9- 22.8---
2024-04-22 05:06 am SW 15.9 21.0----29.90- 39.9- 22.6---
2024-04-22 05:00 am SW 14.0 20.0----29.90-0.06 40.1- 22.8---
2024-04-22 04:54 am SW 15.0 19.0----29.90- 40.3- 22.6---
2024-04-22 04:48 am SW 9.9 15.0----29.91- 40.1- 23.0---
2024-04-22 04:42 am SW 8.0 13.0----29.91- 39.9- 23.7---
2024-04-22 04:36 amSSW 6.0 13.0----29.91- 39.2- 24.4---
2024-04-22 04:30 am S 6.0 8.9----29.92- 38.3- 24.8---
2024-04-22 04:24 am S 6.0 9.9----29.92- 36.9- 25.5---
2024-04-22 04:18 amSSE 8.0 11.1----29.92- 37.6- 25.2---
2024-04-22 04:12 am S 7.0 9.9----29.92- 38.7- 24.8---
2024-04-22 04:06 amSSE 8.9 12.0----29.92- 37.4- 24.6---
2024-04-22 04:00 am S 9.9 12.0----29.92-0.05 38.1- 24.3---
2024-04-22 03:54 am S 11.1 13.0----29.92- 38.7- 23.5---
2024-04-22 03:48 am S 5.1 9.9----29.93- 39.0- 24.6---
2024-04-22 03:42 am SW 7.0 12.0----29.93- 39.4- 23.7---
2024-04-22 03:36 am SW 9.9 15.0----29.93- 39.6- 23.2---
2024-04-22 03:30 am SW 12.0 15.9----29.93- 39.7- 22.8---
2024-04-22 03:24 am SW 11.1 15.0----29.93- 39.7- 22.5---
2024-04-22 03:18 am SW 6.0 8.9----29.93- 39.6- 22.8---
2024-04-22 03:12 amSSW 4.1 8.0----29.93- 39.6- 23.2---
2024-04-22 03:06 amSSW 4.1 8.0----29.93- 39.7- 23.9---
2024-04-22 03:00 amSSW 5.1 8.9----29.94-0.05 39.7- 24.1---
2024-04-22 02:54 am SW 8.0 11.1----29.94- 39.6- 24.3---